Current Version              Previous Version:    01  02  03  04  05  06  07  08  09  10  11  12  13  14  15  16  17  18  19  20  21  22  23  24  25  26  27  28  29  30  
   31  32  33  34  35  36  37  38  39  40  41  42  43  44  45  46  47  48  49  50  51  52  53  54  55  56  57  58  59  60  

[Printable]
931
ASUS44 KFWD 010115
RWRTX
NORTH TEXAS HOURLY WEATHER ROUNDUP
NATIONAL WEATHER SERVICE FORT WORTH TX
700 PM CST SAT JAN 31 2015

NOTE: "FAIR" INDICATES FEW OR NO CLOUDS BELOW 12,000 FEET WITH NO
SIGNIFICANT WEATHER AND/OR OBSTRUCTIONS TO VISIBILITY.

TXZ118-119-010200-
DALLAS/FORT WORTH METROPLEX

CITY           SKY/WX    TMP DP  RH WIND       PRES   REMARKS
DFW AIRPORT    LGT RAIN  49  48  97 SE9       29.96F FOG
DALLAS LOVE    LGT RAIN  51  48  89 SE12      29.96F FOG
FTW MEACHAM    RAIN      49  47  93 E9        29.94F FOG
DAL-EXECUTIVE  LGT RAIN  52  48  86 SE9       29.95F FOG
FTW-ALLIANCE   RAIN      48  47  96 SE9       29.94F FOG
FTW-SPINKS     RAIN      50  48  93 E9        29.96F
ARLINGTON      RAIN      50  47  89 E8        29.96F FOG
ADDISON        LGT RAIN  52  52 100 SE10      29.99F
MESQUITE       LGT RAIN  50  48  93 SE3       30.00S
LANCASTER      RAIN      50  47  88 CALM      30.00S
$$

TXZ091>094-102>105-117-120-121-131>134-010200-
NORTH CENTRAL TEXAS

CITY           SKY/WX    TMP DP  RH WIND       PRES   REMARKS
SHRMAN/DENISON LGT RAIN  47  46  97 SE8       29.99F
GAINESVILLE    RAIN      46  45  97 SE9       29.98F
BOWIE          RAIN      46  45  99 SE9       29.92F
BRIDGEPORT     LGT RAIN  47  47 100 SE7       29.95F
DECATUR        LGT RAIN  46  46  98 SE12      29.93F
DENTON         RAIN      48  47  96 SE10      29.95F FOG
MCKINNEY       LGT RAIN  49  46  90 SE3       29.99F FOG
GREENVILLE     DRIZZLE   52  43  71 SE6       30.00F
ROCKWALL       LGT RAIN  50  47  88 E5        29.98F
TERRELL        LGT RAIN  53  46  77 E6        30.00S
WAXAHACHIE     RAIN      50  50 100 E5        29.99F
CLEBURNE       LGT RAIN  50  50 100 E12       29.96S
GRANBURY       DRIZZLE   49  47  93 SE3       29.96R
$$

TXZ083>090-098>101-113>116-127>130-139>142-154-155-010200-
WESTERN NORTH TEXAS

CITY           SKY/WX    TMP DP  RH WIND       PRES   REMARKS
WICHITA FALLS  LGT RAIN  46  44  93 SE5       29.90F FOG
WF-KICKAPOO    LGT RAIN  40  40 100 SE9       29.92F WCI  34
VERNON         CLOUDY    45  41  86 SE7       29.91F
ABILENE        CLOUDY    52  51  97 S14       29.88S
ABILENE-DYESS  CLOUDY    52  52 100 S9        29.87S
BRECKENRIDGE   CLOUDY    51  50  97 SE9       29.89S
GRAHAM         CLOUDY    46  46 100 SE8       29.90S
MINERAL WELLS  LGT RAIN  46  45  96 SE9       29.91F FOG
STEPHENVILLE   CLOUDY    48  46  93 SE7       29.95S
COMANCHE       CLOUDY    49  49 100 SE6       29.92S FOG
BROWNWOOD      CLOUDY    50  50 100 SE9       29.92S
COLEMAN        CLOUDY    51  51 100 SE8       29.90R FOG
$$

TXZ143>147-156>162-174-175-010200-
CENTRAL TEXAS

CITY           SKY/WX    TMP DP  RH WIND       PRES   REMARKS
WACO           LGT RAIN  54  53  97 E9        29.95F FOG
WACO-TSTC      LGT RAIN  55  50  82 E6        29.96F
WACO-MCGREGOR  CLOUDY    54  48  82 E10       29.96F
HILLSBORO      RAIN      53  50  89 SE8       29.96F
CORSICANA      RAIN      55  49  80 SE9       30.00S
MEXIA          DRIZZLE   54  50  87 SE9       29.98S
HEARNE         DRIZZLE   58  55  88 E7        30.00S
CAMERON        RAIN      58  56  92 SE8       29.97S
TEMPLE         CLOUDY    55  52  88 SE12      29.93F
KILLEEN        CLOUDY    54  54 100 SE13      29.89F FOG
KILLEEN-SKYLRK CLOUDY    55  48  76 E14G25    29.85F
FORT HOOD      CLOUDY    54  54 100 SE9       29.91F FOG
GATESVILLE     CLOUDY    52  52 100 CALM      29.94F FOG
HAMILTON       CLOUDY    50  50 100 S9        29.93F FOG
LAMPASAS       FOG       53  52  97 CALM      29.92R VSB 3/4
$$

TXZ095>097-106>112-122>126-135>138-148>153-164>167-010200-
EAST TEXAS

CITY           SKY/WX    TMP DP  RH WIND       PRES   REMARKS
PARIS          CLOUDY    52  34  50 SE16      30.03S
SULPHUR SPRNGS CLOUDY    55  36  48 SE9G16    30.03F
MOUNT PLEASANT CLOUDY    54  35  48 E7        30.07F
GILMER         CLOUDY    54  36  49 E6        30.04F
MINEOLA        CLOUDY    55  34  44 SE5       30.03F
TYLER          CLOUDY    56  41  57 SE10      30.02F
LONGVIEW       CLOUDY    56  39  53 E5        30.05F
MARSHALL       CLOUDY    56  38  50 CALM      30.10R
ATHENS         CLOUDY    54  41  62 SE9       30.00S
PALESTINE      CLOUDY    57  46  67 E10       30.03S
JACKSONVILLE   CLOUDY    55  45  67 MISG      30.06R
HENDERSON      CLOUDY    56  43  60 SE7       30.06F
NACOGDOCHES    CLOUDY    55  45  67 SE7       30.07R
LUFKIN         CLOUDY    60  48  64 SE10      30.05S
$$

SUPPLEMENTAL OBSERVATIONS (CENTRAL)

CITY           SKY/WX    TMP DP  RH WIND       PRES   REMARKS
LAKE TEXOMA      N/A     46  45  93 E7          N/A
CADDO GRASSLND   N/A     52  37  58 SE6         N/A
PAT MAYSE LAKE   N/A     52  34  50 E12         N/A
PALESTINE        N/A     55  43  62 SE7         N/A
LAKE LIMESTONE   N/A     57  50  77 SE8         N/A
MCGREGOR         N/A     55  54  94 SE12        N/A
TEMPLE           N/A     55  54  94 E10         N/A
$$

SUPPLEMENTAL OBSERVATIONS (WEST)

CITY           SKY/WX    TMP DP  RH WIND       PRES   REMARKS
MILLERS CREEK    N/A     48  46  93 S3          N/A
POSSUM KINGDOM   N/A     48  45  87 SE8         N/A
LBJ GRASSLAND    N/A     46  45  93 SE7         N/A
GRANBURY         N/A     48  45  87 SE5         N/A
COMANCHE         N/A     48  46  93 SE6         N/A
HAMBY            N/A     52  48  87 S13         N/A
IVIE RESERVOIR   N/A     54  52  94 E3          N/A
COLORADO BEND    N/A     54  52  94 S3          N/A
$$

SUPPLEMENTAL OBSERVATIONS (EAST)

CITY           SKY/WX    TMP DP  RH WIND       PRES   REMARKS
CLARKSVILLE      N/A     52  32  46 SE12        N/A
TEXARKANA        N/A     48  32  53 SE2         N/A
LINDEN           N/A     52  37  58 SE1         N/A
CADDO LAKE       N/A     52  39  62 CALM        N/A
GILMER           N/A     55  36  47 SE5         N/A
HENDERSON        N/A     55  39  54 SE8         N/A
LUFKIN           N/A     57  46  67 MISG        N/A
N SABINE NF      N/A     54  45  71 MISG        N/A
S SABINE NF      N/A     55  46  71 NE2         N/A
$$

SUPPLEMENTAL OBSERVATIONS ARE A COLLECTION OF AUTOMATED INSTRUMENTS
THAT ARE MAINTAINED BY A VARIETY OF FEDERAL AND STATE AGENCIES.
CERTAIN ELEMENTS...SUCH AS HUMIDITY VALUES AND SUSTAINED WIND
SPEEDS...MAY BE APPROXIMATED.